Rome, NY

9:48 PM EST on December 04, 2016 (GMT -0500)
Griffiss

Weather History for KRME - February, 2013

Change the Weather History Date:

Friday, February 8, 2013

  Actual Average Record
Temperature  
Mean Temperature 26 °F -  
Max Temperature 30 °F 29 °F 50 °F (1990)
Min Temperature 21 °F 14 °F -2 °F (2014)
Degree Days  
Heating Degree Days 40    
Moisture  
Dew Point 21 °F    
Average Humidity 79    
Maximum Humidity 100    
Minimum Humidity 53    
Precipitation  
Precipitation 0.31 in - - ()
Sea Level Pressure  
Sea Level Pressure 29.97 in    
Wind  
Wind Speed 12 mph (ESE)    
Max Wind Speed 24 mph    
Max Gust Speed 32 mph    
Visibility 4 miles    
Events Fog , Snow    
Averages and records for this station are not official NWS values.
T = Trace of Precipitation, MM = Missing Value Source: NWS Daily Summary

Daily Weather History Graph

Daily Weather History Graph

Search for Another Location

Airport or City:

Trip Planner

Search our weather history database for the weather conditions in past years. The results will help you decide how hot, cold, wet, or windy it might be!

Date:

Astronomy

Feb. 08, 2013 Rise Set
Actual Time 7:08 AM EST 5:23 PM EST
Civil Twilight 6:38 AM EST 5:53 PM EST
Nautical Twilight 6:05 AM EST 6:26 PM EST
Astronomical Twilight 5:32 AM EST 7:00 PM EST
Moon 5:36 AM EST (2/8) 3:53 PM EST (2/8)
Length of Visible Light 11h 14m
Length of Day
10h 14m
Waning Crescent, 3% of the Moon is Illuminated
Feb 8
Waning Crescent
Feb 10
New
Feb 17
First Quarter
Feb 25
Full
Mar 4
Last Quarter

Hourly Weather History & Observations

Time (EST) Temp. Windchill Dew Point Humidity Pressure Visibility Wind Dir Wind Speed Gust Speed Precip Events Conditions
12:53 AM 23.0 °F 11.7 °F 10.9 °F 60% 30.27 in 10.0 mi ESE 11.5 mph - 0.00 in   Overcast
1:53 AM 24.1 °F 14.4 °F 9.0 °F 53% 30.23 in 10.0 mi ESE 9.2 mph - N/A   Overcast
2:53 AM 24.1 °F 13.1 °F 10.9 °F 57% 30.20 in 3.0 mi ESE 11.5 mph - 0.00 in Snow Light Snow
3:53 AM 24.1 °F 13.1 °F 15.1 °F 69% 30.18 in 10.0 mi ESE 11.5 mph - 0.00 in   Overcast
4:53 AM 25.0 °F 13.6 °F 14.0 °F 63% 30.17 in 10.0 mi ESE 12.7 mph - 0.00 in   Overcast
5:20 AM 25.0 °F 12.6 °F 14.0 °F 63% 30.14 in 10.0 mi ESE 15.0 mph - N/A   Overcast
5:53 AM 25.0 °F 12.6 °F 16.0 °F 69% 30.15 in 10.0 mi ESE 15.0 mph - N/A   Overcast
6:53 AM 25.0 °F 14.2 °F 17.1 °F 72% 30.14 in 10.0 mi East 11.5 mph - 0.00 in   Overcast
7:53 AM 24.1 °F 11.5 °F 18.0 °F 77% 30.12 in 7.0 mi ESE 15.0 mph 23.0 mph 0.00 in Snow Light Snow
8:53 AM 25.0 °F 14.8 °F 17.1 °F 72% 30.10 in 9.0 mi ESE 10.4 mph - 0.00 in   Overcast
9:53 AM 27.0 °F 15.2 °F 17.1 °F 66% 30.08 in 10.0 mi ESE 15.0 mph 23.0 mph N/A   Overcast
10:53 AM 27.0 °F 15.2 °F 19.0 °F 72% 30.06 in 6.0 mi ESE 15.0 mph 24.2 mph 0.00 in Snow Light Snow
11:23 AM 28.0 °F 14.9 °F 19.9 °F 72% 30.02 in 10.0 mi ESE 19.6 mph 26.5 mph 0.00 in   Overcast
12:53 PM 28.9 °F 17.7 °F 21.0 °F 72% 29.97 in 10.0 mi ESE 15.0 mph - 0.00 in   Overcast
1:26 PM 28.9 °F 15.8 °F 21.9 °F 75% 29.93 in 2.5 mi ESE 20.7 mph 31.1 mph 0.00 in Snow Light Snow
1:36 PM 28.9 °F 15.1 °F 21.9 °F 75% 29.91 in 3.0 mi ESE 23.0 mph 28.8 mph 0.00 in Snow Light Snow
1:46 PM 28.9 °F 14.8 °F 21.9 °F 75% 29.92 in 2.0 mi ESE 24.2 mph 32.2 mph 0.00 in Snow Light Snow
1:53 PM 30.0 °F 18.7 °F 21.9 °F 72% 29.93 in 2.5 mi ESE 16.1 mph 31.1 mph 0.00 in Snow Light Snow
2:01 PM 30.0 °F 16.3 °F 21.0 °F 69% 29.91 in 5.0 mi ESE 24.2 mph 31.1 mph 0.00 in Snow Light Snow
2:53 PM 30.0 °F 17.5 °F 21.9 °F 72% 29.89 in 6.0 mi ESE 19.6 mph 28.8 mph 0.00 in Snow Light Snow
3:48 PM 30.2 °F 17.8 °F 23.0 °F 75% 29.85 in 1.8 mi ESE 19.6 mph 28.8 mph 0.00 in Snow Light Snow
3:49 PM 30.0 °F 16.9 °F 23.0 °F 75% 29.87 in 1.8 mi ESE 21.9 mph 28.8 mph 0.00 in Snow Light Snow
3:59 PM 30.0 °F 18.7 °F 23.0 °F 75% 29.85 in 2.0 mi ESE 16.1 mph 25.3 mph 0.00 in Snow Light Snow
4:12 PM 30.0 °F 19.1 °F 23.0 °F 75% 29.85 in 4.0 mi ESE 15.0 mph 24.2 mph 0.00 in Snow Light Snow
4:30 PM 30.0 °F 20.0 °F 23.0 °F 75% 29.84 in 4.0 mi ESE 12.7 mph - 0.00 in Snow Light Snow
4:49 PM 28.4 °F 20.4 °F 23.0 °F 80% 29.84 in 2.5 mi ESE 8.1 mph - 0.00 in Snow Light Snow
4:53 PM 28.9 °F 19.8 °F 23.0 °F 78% 29.86 in 2.5 mi East 10.4 mph - 0.00 in Snow Light Snow
5:35 PM 28.0 °F 24.2 °F 25.0 °F 88% 29.84 in 0.8 mi SE 3.5 mph - 0.00 in Snow Light Snow
5:44 PM 28.0 °F - 26.1 °F 92% 29.85 in 0.8 mi Calm Calm - 0.01 in Snow Light Snow
5:53 PM 28.0 °F 22.8 °F 26.1 °F 92% 29.87 in 0.8 mi West 4.6 mph - 0.02 in Snow Light Snow
6:53 PM 27.0 °F 23.0 °F 26.1 °F 96% 29.90 in 0.8 mi WNW 3.5 mph - 0.08 in Snow Light Snow
7:05 PM 27.0 °F - 26.1 °F 96% 29.89 in 1.0 mi Calm Calm - 0.01 in Snow Light Snow
7:37 PM 27.0 °F 23.0 °F 26.1 °F 96% 29.89 in 0.8 mi NW 3.5 mph - 0.03 in Snow Light Snow
7:48 PM 26.6 °F 22.6 °F 26.6 °F 100% 29.90 in 0.5 mi WNW 3.5 mph - 0.04 in Fog , Snow Snow
7:53 PM 27.0 °F 23.0 °F 26.1 °F 96% 29.91 in 0.5 mi NW 3.5 mph - 0.05 in Fog , Snow Snow
8:53 PM 26.1 °F 18.4 °F 24.1 °F 92% 29.91 in 0.5 mi NE 6.9 mph - 0.07 in Fog , Snow Snow
9:49 PM 26.6 °F 20.0 °F 24.8 °F 93% 29.90 in 1.0 mi East 5.8 mph - 0.06 in Snow Light Snow
9:53 PM 26.1 °F 19.4 °F 24.1 °F 92% 29.91 in 1.2 mi East 5.8 mph - 0.06 in Snow Light Snow
10:43 PM 25.0 °F 19.3 °F 23.0 °F 92% 29.91 in 1.0 mi ENE 4.6 mph - 0.01 in Snow Light Snow
10:53 PM 25.0 °F - 23.0 °F 92% 29.93 in 1.0 mi Calm Calm - 0.02 in Snow Light Snow
11:43 PM 21.9 °F 12.5 °F 19.9 °F 92% 29.92 in 2.0 mi NNW 8.1 mph - 0.01 in Snow Light Snow
11:53 PM 21.9 °F 14.5 °F 19.0 °F 89% 29.94 in 4.0 mi NNW 5.8 mph - 0.01 in Snow Light Snow